Main page
METAR-TAF:

METAR-TAF

Airports :

Jacarepaguá Airport

Rio de Janeiro, Rio de Janeiro, Brazil

latitude: 22-59S, longitude: 043-22W, elevation: 3 m

Current weather observation

The report was made 10 hours and 29 minutes ago, at 00:00 UTC
Wind 2 kt from the Southwest
Temperature 23°C
Humidity 89%
Pressure 1014 hPa
Visibility 10 km or more
Scattered clouds at a height of 3000 ft

METAR: SBJR 140000Z 22002KT 9999 SCT030 23/21 Q1014

Time: 08:29 (10:29 UTC)


TAF: missing

Weather observations and forecasts of more than 4000 airports (METAR and TAF reports).

The available stations are represented by yellow and red dots on the map.

Hover mouse over dot to see the name of the station.

Then click to see weather observations and forecasts.

To change the map : click on the green buttons with a black cross to zoom in, on the green button with a dash to zoom out, or on the green arrows for adjacent maps.


METAR-TAF: